Location: Riverside Cemetery
(38.3047°N, 99.7773°W)
Time: 16:24:30
(UTC+00:00)

Cosmos 2112 Rocket - Pass Details

Date: 19 September 2020
Orbit: 756 x 787 km, 74.1° (Epoch: 21 October)

Event Time Altitude Azimuth Distance (km) Brightness Sun altitude
Rises 01:32:21 0° 339° (NNW) 3,223 7.7 -10.8°
Reaches altitude 10° 01:34:43 10° 338° (NNW) 2,297 6.9 -11.2°
Maximum altitude 01:39:55 76° 254° (WSW) 789 4.2 -12.2°
Drops below altitude 10° 01:45:07 10° 169° (S) 2,299 6.2 -13.2°
Sets 01:47:30 0° 168° (SSE) 3,226 7.0 -13.7°
